Regional Weather Roundup
Issued by NWS

Home | Current Version | Previous Version | Text Only | Print | Product List | Glossary On
Versions: 1 2 3 4 5 6 7 8 9 10 11 12 13 14 15 16 17 18 19 20 21 22 23 24 25 26 27 28 29 30 31 32 33 34 35 36 37 38 39 40 41 42 43 44 45 46 47 48 49 50
000
ASUS42 KTBW 031510
RWRFL
FLORIDA REGIONAL WEATHER ROUNDUP
NATIONAL WEATHER SERVICE TAMPA BAY RUSKIN FL
1000 AM EST TUE MAR 03 2015

NOTE: "FAIR" INDICATES FEW OR NO CLOUDS BELOW 12,000 FEET WITH NO
SIGNIFICANT WEATHER AND/OR OBSTRUCTIONS TO VISIBILITY.


FLZ001>010-012>015-112-114-115-031600-
PANHANDLE FLORIDA

CITY           SKY/WX    TMP DP  RH WIND       PRES   REMARKS
PENSACOLA      FOG       63  63 100 SE5       30.20R VSB 3/4
PENSACOLA NAS  FOG       64  64 100 S6        30.20R VSB 1/2
MILTON NAS     CLOUDY    62  61  96 SE3       30.20S FOG
CRESTVIEW      CLOUDY    61  61 100 SE5       30.22R FOG
DUKE FIELD     FOG       61  61  98 CALM      30.19S VSB 1/2
VALPARAISO     FOG       61  61 100 SE3       30.19R VSB 1/2
MARY ESTHER    FOG       63  60  90 SE3       30.19R VSB 1/2
TRI COUNTY     FAIR      65  62  90 VRB6      30.21S
PANAMA CITY    FOG       63  63 100 S3        30.20R VSB 1/2
TYNDALL AFB    MOSUNNY   64  64 100 E7        30.20S
APALACHICOLA   CLOUDY    63  60  90 SE6       30.22S

STATION/POSITION SKY/WX   TEMP    WIND        PRES    WAVE   SWELL
                          AIR SEA DIR/SP/G            HT/PER HT/PER
                          (F)     (DEG/KT/KT) (MB)    (FT/S) (FT/S)
30.1N   87.6W              64 64  130/  4/  4 1021.8R   2/ 7   2/ 7
29.2N   88.2W              71 71  150/ 14/ 16 1021.8R   2/ 7   2/ 7
28.7N   86.0W              64 67  130/ 14/ 16 1022.9F   1/ 6   2/ 6
PANAMA CITY BEAC                  130/  7/  8   N/A
CAPE SAN BLAS    NOT AVBL
TOWER C                    60     130/  6/  6 1023.1S
28.5N   84.5W              63 67  100/ 10/ 10 1023.2R   1/ 8   2/ 8

$$
FLZ011-016>038-118-127-128-134-139-239-031600-
NORTH FLORIDA

CITY           SKY/WX    TMP DP  RH WIND       PRES   REMARKS
MARIANNA       SUNNY     67  63  87 E5        30.21S
TALLAHASSEE    MOSUNNY   73  63  70 SE9       30.21F
PERRY          SUNNY     71  67  86 S5        30.23S
CROSS CITY       N/A     71  65  81 MISG      30.23S
LAKE CITY      PTSUNNY   68  64  88 SE6       30.24S
GAINESVILLE    PTSUNNY   67  63  87 CALM      30.26R
MAYPORT NAS    CLOUDY    68  62  81 SE6       30.26R
JACKSONVILLE   PTSUNNY   72  65  78 VRB6      30.26R
JAX NAS        PTSUNNY   73  64  73 SE6       30.26R
JAX CRAIG      PTSUNNY   71  63  75 E6        30.26R
JAX CECIL      CLOUDY    72  64  78 SE9       30.26R
FERNANDINA BEA CLOUDY    70  64  83 CALM      30.26R
ST AUGUSTINE   PTSUNNY   71  68  90 S12       30.27R FOG

STATION/POSITION SKY/WX   TEMP    WIND        PRES    WAVE   SWELL
                          AIR SEA DIR/SP/G            HT/PER HT/PER
                          (F)     (DEG/KT/KT) (MB)    (FT/S) (FT/S)
SHELL POINT                61     110/  3/  5   N/A
KEATON BEACH               65     190/  7/  7 1023.7F
CEDAR KEY                  63      90/  4/  5 1024.3R
FERNANDINA                        310/  3/  3   N/A
30.7N   81.3W                 54                N/A     2/ 9
MAYPORT                           110/  3/  6   N/A
31.4N   80.9W              57 53  190/  4/  4 1024.6S   2/ 9   2/ 9
ST AUGUSTINE               65     180/  5/  5 1025.2R

$$
FLZ040-043>046-052-053-057-058-063-144-031600-
INTERIOR CENTRAL FLORIDA

CITY           SKY/WX    TMP DP  RH WIND       PRES   REMARKS
OCALA          MOSUNNY   73  64  73 S6        30.25R
THE VILLAGES     N/A     75  68  78 E8        30.15S
LEESBURG       MOSUNNY   73  66  78 SE7       30.26R
SANFORD        SUNNY     75  68  78 SE6       30.25S
ORLANDO EXEC   MOSUNNY   72  68  87 E3        30.25S
ORLANDO INTL   PTSUNNY   70  69  97 CALM      30.25S FOG
KISSIMMEE      PTSUNNY   72  70  94 E5        30.26R
WINTER HAVEN   MOSUNNY   72  67  84 E7        30.26S
LAKELAND       PTSUNNY   72  68  88 E7        30.25R
BARTOW         PTSUNNY   68 N/A N/A NE6       30.26R
OKEECHOBEE     PTSUNNY   75  68  78 E10       30.24R

$$
FLZ041-047-054-059-064-141-147-031600-
EAST CENTRAL FLORIDA

CITY           SKY/WX    TMP DP  RH WIND       PRES   REMARKS
ORMOND BEACH   PTSUNNY   68  68 100 CALM      30.26R FOG
DAYTONA BEACH  MOSUNNY   73  68  84 NE3       30.26S
DELAND           N/A    N/A N/A N/A SE5       30.26S
NEW SMYRNA BEA PTSUNNY   70  66  88 CALM      30.27R FOG
JFK SPACE CTR  PTSUNNY   70  69  96 VRB3      30.24S
TITUSVILLE     MOSUNNY   68  68 100 E6        30.25S
CAPE CANAVERAL MOSUNNY   70  69  98 NE3       30.23S
PATRICK AFB    SUNNY     69  69 100 MISG      30.25R
MELBOURNE      MOSUNNY   75  68  78 NE3       30.24S
VERO BEACH     MOSUNNY   78  65  63 E12       30.24R
FT PIERCE      MOSUNNY   78  66  66 E14       30.23S
STUART         PTSUNNY   77  66  69 E14       30.24S

STATION/POSITION SKY/WX   TEMP    WIND        PRES    WAVE   SWELL
                          AIR SEA DIR/SP/G            HT/PER HT/PER
                          (F)     (DEG/KT/KT) (MB)    (FT/S) (FT/S)
28.5N   80.2W              71 72  150/  6/ 10 1024.1R
28.9N   78.5W              73 75   80/ 10/ 12 1024.8F   4/ 9   3/ 9
TRIDENT PIER                       CALM  /  1   N/A
28.4N   80.5W                 65                N/A     2/ 9
27.6N   80.2W                 73                N/A     4/ 9   2/11

$$
FLZ050-056-061-142-242-148-248-149-249-151-251-155-255-
160-260-031600-
WEST CENTRAL FLORIDA

CITY           SKY/WX    TMP DP  RH WIND       PRES   REMARKS
CRYSTAL RIVER  FAIR      75  63  64 SE3       30.24S
INVERNESS      FAIR      75  64  69 SE6       30.25S
BROOKSVILLE    MOSUNNY   75  67  76 SE9       30.25R
ZEPHYRHILLS    CLOUDY    64  64 100 CALM      30.25S
CLEARWATER     MOSUNNY   72  68  87 NE8       30.22S
TAMPA INTL     MOSUNNY   75  66  73 SE6       30.23S
TAMPA EXEC     PTSUNNY   73  70  88 E5        30.24S
PLANT CITY     PTSUNNY  N/A N/A N/A E8        30.26R
MACDILL AFB    SUNNY     74  71  89 SE9       30.23R
PETER O KNIGHT SUNNY     77  70  78 SE6       30.24R
ST PETERSBURG  SUNNY     70  66  87 E5        30.22R
SARASOTA       SUNNY     75  67  76 E13       30.21R
VENICE         FAIR      75  68  78 E10       30.23R

STATION/POSITION SKY/WX   TEMP    WIND        PRES    WAVE   SWELL
                          AIR SEA DIR/SP/G            HT/PER HT/PER
                          (F)     (DEG/KT/KT) (MB)    (FT/S) (FT/S)
CEDAR KEY                  63      90/  4/  5 1024.3R
28.5N   84.5W              63 67  100/ 10/ 10 1023.2R   1/ 8   2/ 8
27.3N   84.3W                 71                N/A     2/ 3
CLEARWATER BEACH                  100/  6/  8   N/A
MIDDLE TAMPA BAY                  130/  3/  4   N/A
VENICE                     74 63  100/  7/  9 1022.7R

$$
FLZ066-069-070-075>078-162-262-165-265-031600-
SOUTHWEST FLORIDA AND KEYS

CITY           SKY/WX    TMP DP  RH WIND       PRES   REMARKS
PUNTA GORDA    MOSUNNY   74  68  81 SE10      30.24R
FT MYERS       SUNNY     75  67  76 SE10      30.21S
SOUTHWEST INTL SUNNY     75  67  76 SE9       30.21F
NAPLES         PTSUNNY   77  69  76 E8        30.20S
MARCO ISLAND   MOSUNNY   75  66  73 E13       30.21S
IMMOKALEE      MOSUNNY  N/A N/A N/A SE13G18   30.23S
MARATHON       SUNNY     79  67  66 E10       30.19R
KEY WEST NAS   MOSUNNY   79  68  69 E18       30.19R
KEY WEST INTL  SUNNY     78  70  76 E15       30.19R

STATION/POSITION SKY/WX   TEMP    WIND        PRES    WAVE   SWELL
                          AIR SEA DIR/SP/G            HT/PER HT/PER
                          (F)     (DEG/KT/KT) (MB)    (FT/S) (FT/S)
VENICE                     74 63  100/  7/  9 1022.7R
NAPLES                            110/  7/ 11   N/A
26.0N   85.6W              74 77  100/ 12/ 16 1021.7R   3/ 4   2/ 6
DRY TORTUGAS               72      80/ 12/ 14 1021.7R
SAND KEY                   75      90/ 16/ 18 1022.1R
SOMBRERO KEY               75      80/ 16/ 17 1022.8R
LONG KEY                   75 76   90/ 14/ 16 1023.2R
MOLASSES REEF              75 76   90/ 16/ 17 1022.7R

$$
FLZ067-068-071>074-168-172>174-031600-
SOUTHEAST FLORIDA

CITY           SKY/WX    TMP DP  RH WIND       PRES   REMARKS
W PALM BEACH   MOSUNNY   79  66  64 E16       30.22R
FT LAUDER-EXEC MOSUNNY   79  64  60 E18       30.22R
FT LAUDERDALE  MOSUNNY   77  68  73 E18       30.21S
POMPANO BEACH  MOSUNNY   79  66  64 E14       30.22S
PEMBROKE PINES PTSUNNY   79  67  66 E14       30.23R
OPA LOCKA      PTSUNNY   78  66  66 E15       30.22R
MIAMI          MOSUNNY   79  65  62 E16       30.22S
WEST KENDALL   MOSUNNY   77  64  64 E15       30.22R
HOMESTEAD      SUNNY     78  65  65 E16G22    30.21R

STATION/POSITION SKY/WX   TEMP    WIND        PRES    WAVE   SWELL
                          AIR SEA DIR/SP/G            HT/PER HT/PER
                          (F)     (DEG/KT/KT) (MB)    (FT/S) (FT/S)
PORT EVERGLADES            76      90/  9/ 13 1023.2
VIRGINIA KEY                       90/ 12/ 15   N/A


USA.gov is the U.S. government's official web portal to all federal, state and local government web resources and services.